Location: Newark
(40.3500°N, 15.2333°E)
Time: 13:38:48
(UTC+00:00)

Explorer 7 - Visible Passes

Search period start: 23 January 2020 00:00
Search period end: 02 February 2020 00:00
Orbit: 485 x 679 km, 50.3° (Epoch: 22 January)

Date Brightness Start Highest point End Pass type
(mag) Time Alt. Az. Time Alt. Az. Time Alt. Az.
23 Jan 9.0 03:32:32 24° E 03:32:32 24° E 03:34:31 10° E visible
23 Jan 7.5 05:08:52 20° W 05:11:10 39° SW 05:15:08 10° SSE visible
24 Jan 8.7 03:37:33 28° E 03:37:33 28° E 03:39:43 10° ESE visible
24 Jan 8.2 05:13:54 16° W 05:15:58 24° SW 05:19:23 10° S visible
25 Jan 8.6 03:42:39 29° SE 03:42:39 29° SE 03:44:45 10° SE visible
25 Jan 8.8 05:19:00 11° WSW 05:20:43 14° SW 05:22:58 10° SSW visible
26 Jan 8.7 03:47:50 23° SSE 03:47:50 23° SSE 03:49:33 10° SE visible
27 Jan 9.1 03:53:06 16° SSE 03:53:06 16° SSE 03:54:03 10° SSE visible
30 Jan 9.0 18:02:46 10° S 18:03:41 14° SSE 18:03:41 14° SSE visible
31 Jan 8.2 18:06:44 10° SSW 18:09:02 25° S 18:09:02 25° S visible
01 Feb 7.4 18:11:11 10° SW 18:14:19 43° S 18:14:19 43° S visible
